| time (UTC) | temp C | wind direction | speed KPH | gust KPH | rain 1hr cm | rain 24hr cm | rain mn cm | humidity % | barometer mb |
| 20260504081350 | 1 | 271 | 0.0 | 0.0 | 0.00 | 0.00 | 0.00 | 95 | 1012.2 |
| 20260504080327 | 1 | 271 | 0.0 | 0.0 | 0.00 | 0.00 | 0.00 | 95 | 1012.1 |
| 20260504070326 | 2 | 270 | 0.0 | 0.0 | 0.00 | 0.00 | 0.00 | 94 | 1012.1 |
| 20260504050322 | 3 | 270 | 0.0 | 0.0 | 0.00 | 0.00 | 0.00 | 92 | 1012.2 |
| 20260504045359 | 3 | 270 | 0.0 | 0.0 | 0.00 | 0.00 | 0.00 | 91 | 1012.2 |
| 20260504044321 | 3 | 270 | 0.0 | 0.0 | 0.00 | 0.00 | 0.00 | 91 | 1012.2 |
| 20260504043321 | 3 | 271 | 0.0 | 0.0 | 0.00 | 0.00 | 0.00 | 90 | 1012.2 |
| 20260504042324 | 3 | 271 | 0.0 | 0.0 | 0.00 | 0.00 | 0.00 | 89 | 1012.2 |
| 20260504041322 | 3 | 270 | 0.0 | 0.0 | 0.00 | 0.00 | 0.00 | 89 | 1012.1 |
| 20260504040400 | 4 | 271 | 0.0 | 0.0 | 0.00 | 0.00 | 0.00 | 88 | 1012.1 |
| 20260504035337 | 4 | 270 | 0.0 | 0.0 | 0.00 | 0.00 | 0.00 | 88 | 1012.0 |
| 20260504034341 | 4 | 271 | 0.0 | 0.0 | 0.00 | 0.00 | 0.00 | 87 | 1012.0 |
| 20260504033322 | 5 | 271 | 0.0 | 0.0 | 0.00 | 0.00 | 0.00 | 86 | 1011.9 |
| 20260504032322 | 5 | 271 | 0.0 | 0.0 | 0.00 | 0.00 | 0.00 | 86 | 1011.8 |
| 20260504031326 | 5 | 270 | 0.0 | 0.0 | 0.00 | 0.00 | 0.00 | 85 | 1011.7 |
| 20260504030325 | 5 | 271 | 0.0 | 0.0 | 0.00 | 0.00 | 0.00 | 84 | 1012.6 |
| 20260504025322 | 5 | 271 | 0.0 | 0.0 | 0.00 | 0.00 | 0.00 | 84 | 1011.7 |
| 20260504024339 | 6 | 271 | 0.0 | 0.0 | 0.00 | 0.00 | 0.00 | 83 | 1005.3 |
| 20260504023321 | 6 | 270 | 0.0 | 0.0 | 0.00 | 0.00 | 0.00 | 81 | 1011.7 |
| 20260504022324 | 6 | 270 | 0.0 | 0.0 | 0.00 | 0.00 | 0.00 | 80 | 1011.7 |
| 20260504021321 | 7 | 271 | 0.0 | 0.0 | 0.00 | 0.00 | 0.00 | 78 | 1011.7 |
| 20260504020321 | 7 | 271 | 0.0 | 0.0 | 0.00 | 0.00 | 0.00 | 76 | 1007.7 |
| 20260504015344 | 7 | 271 | 0.0 | 0.0 | 0.00 | 0.00 | 0.00 | 73 | 1011.8 |
| 20260504014321 | 8 | 270 | 0.0 | 0.0 | 0.00 | 0.00 | 0.00 | 71 | 1013.5 |
| 20260504013338 | 7 | 270 | 0.0 | 0.0 | 0.00 | 0.00 | 0.00 | 76 | 880.8 |
| 20260504012337 | 8 | 271 | 0.0 | 0.0 | 0.00 | 0.00 | 0.00 | 73 | 1022.3 |
| 20260504011326 | 9 | 270 | 0.0 | 0.0 | 0.00 | 0.00 | 0.00 | 68 | 876.3 |
| 20260504010324 | 9 | 271 | 0.0 | 0.0 | 0.00 | 0.00 | 0.00 | 66 | 1009.2 |
| 20260504005323 | 11 | 271 | 0.0 | 0.0 | 0.00 | 0.00 | 0.00 | 59 | 1011.1 |
| 20260504004322 | 11 | 271 | 0.0 | 0.0 | 0.00 | 0.00 | 0.00 | 55 | 1011.1 |
| 20260504003322 | 11 | 271 | 0.0 | 0.0 | 0.00 | 0.00 | 0.00 | 54 | 1011.0 |
| 20260504002400 | 11 | 271 | 0.0 | 0.0 | 0.00 | 0.00 | 0.00 | 55 | 1011.0 |
| 20260504001337 | 12 | 271 | 0.0 | 0.0 | 0.00 | 0.00 | 0.00 | 52 | 1010.8 |
| 20260504000325 | 12 | 271 | 0.0 | 6.4 | 0.00 | 0.00 | 0.00 | 52 | 1010.8 |
| 20260503235343 | 12 | 271 | 0.0 | 0.0 | 0.00 | 0.00 | 0.00 | 50 | 1010.7 |
| 20260503234321 | 12 | 271 | 4.8 | 9.7 | 0.00 | 0.00 | 0.00 | 51 | 1010.7 |
| 20260503233346 | 13 | 237 | 1.6 | 12.9 | 0.00 | 0.00 | 0.00 | 49 | 1010.5 |
| 20260503232325 | 13 | 248 | 3.2 | 17.7 | 0.00 | 0.00 | 0.00 | 49 | 1010.5 |
| 20260503231342 | 13 | 271 | 3.2 | 17.7 | 0.00 | 0.00 | 0.00 | 48 | 1010.5 |
| 20260503230340 | 13 | 240 | 6.4 | 14.5 | 0.00 | 0.00 | 0.00 | 47 | 1010.6 |
| 20260503225338 | 14 | 290 | 1.6 | 16.1 | 0.00 | 0.00 | 0.00 | 47 | 1010.5 |
| 20260503224321 | 14 | 223 | 8.0 | 29.0 | 0.00 | 0.00 | 0.00 | 46 | 1010.4 |
| 20260503223325 | 15 | 304 | 6.4 | 19.3 | 0.00 | 0.00 | 0.00 | 46 | 1010.4 |
| 20260503222344 | 15 | 250 | 0.0 | 24.1 | 0.00 | 0.00 | 0.00 | 46 | 1010.5 |
| 20260503221339 | 15 | 261 | 11.3 | 25.7 | 0.00 | 0.00 | 0.00 | 45 | 946.1 |
| 20260503220339 | 15 | 256 | 8.0 | 27.4 | 0.00 | 0.00 | 0.00 | 48 | 1010.6 |
| 20260503215337 | 15 | 297 | 1.6 | 14.5 | 0.00 | 0.00 | 0.00 | 43 | 1010.6 |
| 20260503214322 | 15 | 268 | 8.0 | 20.9 | 0.00 | 0.00 | 0.00 | 46 | 1010.5 |
| 20260503213325 | 15 | 346 | 4.8 | 19.3 | 0.00 | 0.00 | 0.00 | 47 | 1010.3 |
| 20260503212324 | 15 | 293 | 11.3 | 32.2 | 0.00 | 0.00 | 0.00 | 48 | 1010.2 |
| 20260503211324 | 15 | 250 | 11.3 | 24.1 | 0.00 | 0.00 | 0.00 | 45 | 1010.3 |
| 20260503210326 | 16 | 304 | 14.5 | 29.0 | 0.00 | 0.00 | 0.00 | 46 | 1010.3 |
| 20260503205322 | 15 | 311 | 4.8 | 20.9 | 0.00 | 0.00 | 0.00 | 49 | 1010.3 |
| 20260503204321 | 16 | 254 | 6.4 | 24.1 | 0.00 | 0.00 | 0.00 | 44 | 1010.4 |
| 20260503203323 | 17 | 334 | 6.4 | 40.2 | 0.00 | 0.00 | 0.00 | 44 | 1010.3 |
| 20260503202322 | 16 | 247 | 3.2 | 17.7 | 0.00 | 0.00 | 0.00 | 46 | 1010.2 |
| 20260503201338 | 15 | 242 | 14.5 | 25.7 | 0.00 | 0.00 | 0.00 | 45 | 1010.3 |
| 20260503200332 | 16 | 293 | 11.3 | 17.7 | 0.00 | 0.00 | 0.00 | 45 | 1010.6 |
| 20260503195336 | 17 | 334 | 8.0 | 20.9 | 0.00 | 0.00 | 0.00 | 41 | 1010.7 |
| 20260503194348 | 16 | 347 | 8.0 | 27.4 | 0.00 | 0.00 | 0.00 | 46 | 1010.7 |
| 20260503193345 | 17 | 281 | 11.3 | 27.4 | 0.00 | 0.00 | 0.00 | 42 | 1010.7 |
| 20260503192321 | 17 | 256 | 1.6 | 24.1 | 0.00 | 0.00 | 0.00 | 48 | 1010.8 |
| 20260503191324 | 15 | 279 | 3.2 | 16.1 | 0.00 | 0.00 | 0.00 | 43 | 1010.9 |
| 20260503190343 | 16 | 271 | 9.7 | 29.0 | 0.00 | 0.00 | 0.00 | 45 | 1011.1 |
| 20260503185321 | 16 | 282 | 8.0 | 24.1 | 0.00 | 0.00 | 0.00 | 40 | 1011.0 |
| 20260503184324 | 15 | 301 | 6.4 | 17.7 | 0.00 | 0.00 | 0.00 | 47 | 1011.3 |
| 20260503183322 | 16 | 320 | 9.7 | 17.7 | 0.00 | 0.00 | 0.00 | 49 | 1011.4 |
| 20260503182340 | 15 | 312 | 4.8 | 14.5 | 0.00 | 0.00 | 0.00 | 44 | 1011.6 |
| 20260503181339 | 16 | 257 | 14.5 | 33.8 | 0.00 | 0.00 | 0.00 | 46 | 1011.7 |
| 20260503180324 | 15 | 292 | 8.0 | 30.6 | 0.00 | 0.00 | 0.00 | 49 | 1012.0 |
| 20260503175323 | 15 | 262 | 14.5 | 24.1 | 0.00 | 0.00 | 0.00 | 49 | 1011.9 |
| 20260503174321 | 14 | 299 | 9.7 | 30.6 | 0.00 | 0.00 | 0.00 | 50 | 1012.0 |
| 20260503173325 | 13 | 290 | 4.8 | 19.3 | 0.00 | 0.00 | 0.00 | 53 | 1012.4 |
| 20260503172343 | 13 | 332 | 1.6 | 24.1 | 0.00 | 0.00 | 0.00 | 44 | 1012.2 |
| 20260503171339 | 13 | 269 | 3.2 | 19.3 | 0.00 | 0.00 | 0.00 | 52 | 1012.3 |
| 20260503170337 | 12 | 319 | 8.0 | 22.5 | 0.00 | 0.00 | 0.00 | 50 | 1012.6 |
| 20260503150328 | 10 | 15 | 11.3 | 22.5 | 0.00 | 0.00 | 0.00 | 48 | 1013.1 |
| 20260503131322 | 8 | 346 | 1.6 | 16.1 | 0.00 | 0.00 | 0.00 | 63 | 1013.9 |
| 20260503130326 | 9 | 287 | 1.6 | 14.5 | 0.00 | 0.00 | 0.00 | 60 | 1036.3 |
| 20260503110334 | 3 | 333 | 0.0 | 0.0 | 0.00 | 0.00 | 0.00 | 86 | 1013.3 |